Weather History for KAXH - October, 2012

Change the Weather History Date:

Wednesday, October 17, 2012

  Actual Average (KHOU) Record (KHOU)
Temperature  
Mean Temperature 76 °F 71 °F  
Max Temperature 90 °F 82 °F 93 °F (1895)
Min Temperature 62 °F 61 °F 40 °F (1977)
Degree Days  
Heating Degree Days 0 1  
Month to date heating degree days 6  
Since 1 July heating degree days 7  
Cooling Degree Days 11 7  
Month to date cooling degree days 148  
Year to date cooling degree days 2973  
Growing Degree Days 26 (Base 50)    
Moisture  
Dew Point 67 °F    
Average Humidity 79    
Maximum Humidity 99    
Minimum Humidity 47    
Precipitation  
Precipitation 0.03 in 0.20 in 4.31 in (1994)
Month to date precipitation 3.01  
Year to date precipitation 39.00  
Sea Level Pressure  
Sea Level Pressure 29.73 in    
Wind  
Wind Speed 4 mph (SSW)    
Max Wind Speed 14 mph    
Max Gust Speed 23 mph    
Visibility 7 miles    
Events Fog    
T = Trace of Precipitation, MM = Missing Value Source: NWS Daily Summary

Daily Weather History Graph

Daily Weather History Graph

Search for Another Location

Airport or City:

Trip Planner

Search our weather history database for the weather conditions in past years. The results will help you decide how hot, cold, wet, or windy it might be!

Date:

Astronomy

Oct. 17, 2012 Rise Set
Actual Time 7:25 AM CDT 6:48 PM CDT
Civil Twilight 7:00 AM CDT 7:12 PM CDT
Nautical Twilight 6:33 AM CDT 7:40 PM CDT
Astronomical Twilight 6:05 AM CDT 8:08 PM CDT
Moon 9:47 AM CDT (10/17) 8:40 PM CDT (10/17)
Length of Visible Light 12h 11m
Length of Day
11h 23m
Waxing Crescent, 7% of the Moon is Illuminated
Oct 17
Waxing Crescent
Oct 21
First Quarter
Oct 29
Full
Nov 6
Last Quarter
Nov 13
New

Hourly Weather History & Observations

Time (CDT) Temp. Heat Index Dew Point Humidity Pressure Visibility Wind Dir Wind Speed Gust Speed Precip Events Conditions
12:15 AM 63.0 °F - 61.9 °F 96% 29.81 in 10.0 mi SSE 4.6 mph - N/A   Overcast
12:35 AM 63.0 °F - 61.9 °F 96% 29.81 in 10.0 mi SE 3.5 mph - N/A   Overcast
12:55 AM 63.0 °F - 61.9 °F 96% 29.80 in 7.0 mi SSE 3.5 mph - N/A   Overcast
1:15 AM 62.8 °F - 61.7 °F 96% 29.79 in 7.0 mi Calm Calm - N/A   Scattered Clouds
1:35 AM 62.6 °F - 61.7 °F 97% 29.78 in 5.0 mi Calm Calm - N/A   Clear
1:55 AM 62.4 °F - 61.2 °F 96% 29.78 in 5.0 mi SE 3.5 mph - N/A   Clear
2:15 AM 62.8 °F - 61.9 °F 97% 29.78 in 7.0 mi Calm Calm - N/A   Clear
2:35 AM 63.1 °F - 62.2 °F 97% 29.78 in 5.0 mi Calm Calm - N/A   Clear
2:55 AM 63.1 °F - 62.2 °F 97% 29.77 in 4.0 mi Calm Calm - N/A   Clear
3:15 AM 63.3 °F - 62.4 °F 97% 29.77 in 2.0 mi Calm Calm - N/A   Clear
3:35 AM 63.5 °F - 62.6 °F 97% 29.77 in 1.5 mi Calm Calm - N/A   Mostly Cloudy
3:55 AM 63.5 °F - 62.6 °F 97% 29.76 in 1.2 mi Calm Calm - N/A   Mist
4:15 AM 63.3 °F - 62.4 °F 97% 29.77 in 1.5 mi Calm Calm - N/A   Mist
5:15 AM 63.5 °F - 62.6 °F 97% 29.77 in 5.0 mi Calm Calm - N/A   Scattered Clouds
5:35 AM 63.1 °F - 62.2 °F 97% 29.78 in 3.0 mi Calm Calm - N/A   Scattered Clouds
5:55 AM 63.0 °F - 62.1 °F 97% 29.78 in 0.8 mi Calm Calm - N/A   Mostly Cloudy
6:15 AM 63.0 °F - 62.1 °F 97% 29.78 in 3.0 mi Calm Calm - N/A   Scattered Clouds
6:55 AM 63.0 °F - 62.1 °F 97% 29.77 in 5.0 mi Calm Calm - N/A   Mostly Cloudy
7:15 AM 63.9 °F - 63.1 °F 97% 29.77 in 5.0 mi Calm Calm - N/A   Clear
7:35 AM 64.0 °F - 63.5 °F 98% 29.77 in 3.0 mi Calm Calm - N/A   Scattered Clouds
7:55 AM 64.0 °F - 63.5 °F 98% 29.77 in 1.2 mi North - - N/A   Overcast
8:15 AM 65.5 °F - 65.1 °F 99% 29.77 in 4.0 mi Calm Calm - N/A   Overcast
8:35 AM 68.0 °F - 67.5 °F 98% 29.78 in 5.0 mi Calm Calm - N/A   Overcast
8:55 AM 70.5 °F - 69.8 °F 98% 29.78 in 7.0 mi Calm Calm - N/A   Overcast
9:15 AM 72.5 °F - 72.0 °F 98% 29.77 in 10.0 mi South 5.8 mph - N/A   Overcast
9:35 AM 74.8 °F - 74.3 °F 98% 29.78 in 10.0 mi South 5.8 mph - N/A   Overcast
9:55 AM 77.5 °F - 76.1 °F 95% 29.78 in 10.0 mi South 5.8 mph - N/A   Overcast
10:15 AM 79.0 °F - 75.9 °F 90% 29.78 in 10.0 mi SSW 8.1 mph - N/A   Mostly Cloudy
10:35 AM 81.3 °F 87.4 °F 74.8 °F 81% 29.78 in 10.0 mi SSW 10.4 mph 16.1 mph N/A   Scattered Clouds
10:55 AM 82.4 °F 88.4 °F 73.9 °F 75% 29.77 in 10.0 mi SSW 6.9 mph 16.1 mph N/A   Clear
11:35 AM 83.3 °F 88.2 °F 71.4 °F 67% 29.75 in 10.0 mi SSW 12.7 mph 19.6 mph N/A   Scattered Clouds
11:55 AM 83.7 °F 88.3 °F 70.7 °F 65% 29.75 in 10.0 mi SSW 9.2 mph 17.3 mph N/A   Scattered Clouds
12:15 PM 84.2 °F 89.3 °F 71.2 °F 65% 29.75 in 10.0 mi SSW 11.5 mph 17.3 mph N/A   Scattered Clouds
12:35 PM 85.3 °F 90.4 °F 70.9 °F 62% 29.74 in 10.0 mi SW 9.2 mph 18.4 mph N/A   Mostly Cloudy
12:55 PM 88.0 °F 92.5 °F 69.6 °F 54% 29.73 in 10.0 mi SSW 12.7 mph 19.6 mph N/A   Mostly Cloudy
1:15 PM 87.6 °F 91.9 °F 69.1 °F 54% 29.72 in 10.0 mi SW 10.4 mph 17.3 mph N/A   Mostly Cloudy
1:35 PM 89.2 °F 93.6 °F 68.7 °F 51% 29.70 in 10.0 mi SW 10.4 mph 20.7 mph N/A   Scattered Clouds
1:55 PM 89.6 °F 93.4 °F 68.0 °F 49% 29.69 in 10.0 mi SSW 11.5 mph 19.6 mph N/A   Scattered Clouds
2:15 PM 90.7 °F 95.4 °F 69.1 °F 49% 29.68 in 10.0 mi SSW 12.7 mph 23.0 mph N/A   Scattered Clouds
2:35 PM 89.8 °F 94.6 °F 69.3 °F 51% 29.68 in 10.0 mi SSW 12.7 mph 20.7 mph N/A   Mostly Cloudy
2:55 PM 90.1 °F 94.4 °F 68.4 °F 49% 29.67 in 10.0 mi SW 10.4 mph 19.6 mph N/A   Mostly Cloudy
3:15 PM 90.5 °F 94.2 °F 67.5 °F 47% 29.66 in 10.0 mi SW 13.8 mph 20.7 mph N/A   Scattered Clouds
3:35 PM 90.5 °F 94.2 °F 68.0 °F 47% 29.66 in 10.0 mi SSW 11.5 mph 17.3 mph N/A   Clear
3:55 PM 90.5 °F 95.1 °F 69.1 °F 49% 29.66 in 10.0 mi SSW 10.4 mph - N/A   Scattered Clouds
4:15 PM 88.5 °F 92.7 °F 69.1 °F 52% 29.66 in 10.0 mi SSW 8.1 mph - N/A   Scattered Clouds
4:35 PM 89.1 °F 93.3 °F 68.5 °F 51% 29.66 in 10.0 mi SSW 10.4 mph 18.4 mph N/A   Clear
4:55 PM 88.5 °F 93.1 °F 69.3 °F 53% 29.65 in 10.0 mi SW 8.1 mph 18.4 mph N/A   Scattered Clouds
5:15 PM 88.3 °F 93.6 °F 70.2 °F 55% 29.65 in 10.0 mi SSW 9.2 mph - N/A   Clear
5:35 PM 87.3 °F 92.4 °F 70.2 °F 57% 29.65 in 10.0 mi South 8.1 mph - N/A   Clear
5:55 PM 86.0 °F 91.1 °F 70.5 °F 60% 29.65 in 10.0 mi SSW 8.1 mph - N/A   Clear
6:15 PM 84.6 °F 89.4 °F 70.5 °F 63% 29.65 in 10.0 mi South 8.1 mph - N/A   Clear
6:35 PM 82.4 °F 86.3 °F 70.2 °F 66% 29.65 in 10.0 mi South 8.1 mph - N/A   Clear
6:55 PM 80.6 °F 83.9 °F 69.8 °F 70% 29.65 in 10.0 mi South 9.2 mph - N/A   Clear
7:15 PM 79.5 °F - 70.0 °F 72% 29.66 in 10.0 mi South 5.8 mph - N/A   Clear
7:35 PM 78.4 °F - 70.2 °F 76% 29.67 in 10.0 mi South 6.9 mph - N/A   Clear
7:55 PM 77.9 °F - 70.3 °F 77% 29.68 in 10.0 mi Calm Calm - N/A   Clear
8:15 PM 76.6 °F - 69.3 °F 78% 29.70 in 10.0 mi Calm Calm - N/A   Clear
8:35 PM 75.2 °F - 67.8 °F 78% 29.71 in 10.0 mi Calm Calm - N/A   Clear
8:55 PM 74.5 °F - 67.3 °F 78% 29.72 in 7.0 mi Calm Calm - N/A   Clear
9:35 PM 73.4 °F - 68.0 °F 83% 29.71 in 7.0 mi South 3.5 mph - N/A   Clear
9:55 PM 72.7 °F - 67.6 °F 84% 29.73 in 5.0 mi Calm Calm - N/A   Haze
10:15 PM 72.1 °F - 67.5 °F 85% 29.73 in 4.0 mi Calm Calm - N/A   Clear
10:55 PM 71.6 °F - 66.7 °F 85% 29.73 in 0.5 mi Calm Calm - N/A   Haze
11:15 PM 72.0 °F - 68.5 °F 89% 29.73 in 0.5 mi Calm Calm - N/A Fog Fog
11:35 PM 71.8 °F - 68.9 °F 91% 29.73 in 0.5 mi Calm Calm - N/A Fog Fog
11:55 PM 71.2 °F - 66.7 °F 86% 29.73 in 0.2 mi Calm Calm - N/A Fog Fog